Regional Weather Roundup
Issued by NWS

Home | Current Version | Previous Version | Text Only | Print | Product List | Glossary On
Versions: 1 2 3 4 5 6 7 8 9 10 11 12 13 14 15 16 17 18 19 20 21 22 23 24 25 26 27 28 29 30 31 32 33 34 35 36 37 38 39 40 41 42 43 44 45 46 47 48 49 50
000
ASCA44 KEWX 300320
RWRMX

LATIN AMERICA AND CARIBBEAN REGIONAL WEATHER ROUNDUP
NATIONAL WEATHER SERVICE AUSTIN/SAN ANTONIO TX
1000 PM CDT WED MAR 29 2017

NOTE: "FAIR" INDICATED FEW OR NO CLOUDS BELOW 12,000 FEET WITH NO
SIGNIFICANT WEATHER AND/OR OBSTRUCTIONS TO VISIBILITY.

BAJA CALIFORNIA

CITY           SKY/WX    TMP DP  RH WIND       PRES   REMARKS
LA PAZ         CLEAR     70  48  46 CALM      29.97
MEXICALI       CLEAR     79  21  11 SW5       29.92S
S.J. DEL CABO    N/A    N/A N/A N/A MISG        N/A
TIJUANA        PTCLDY    61  46  59 W7        30.05R

NORTHWESTERN MEXICO

CITY           SKY/WX    TMP DP  RH WIND       PRES   REMARKS
CULIACAN       CLEAR     70  55  60 CALM      29.92R
DURANGO        CLEAR     66  12  12 SW12      30.12R
GUAYMAS          N/A    N/A N/A N/A MISG        N/A
HERMOSILLO     CLEAR     79  34  19 W9        29.94R
CD. JUAREZ     MOCLDY    61  37  41 E16       30.01R
LOS MOCHIS     CLEAR     70  52  52 NW7       29.94R

NORTHEASTERN MEXICO

CITY           SKY/WX    TMP DP  RH WIND       PRES   REMARKS
CHIHUAHUA      MOCLDY    63  28  27 N16       30.07R
MONCLOVA         N/A    N/A N/A N/A MISG        N/A
MONTERREY      CLEAR     73  41  31 SE6       29.81R
REYNOSA          N/A    N/A N/A N/A MISG        N/A
SALTILLO       CLEAR     64  46  52 N14       29.97R
TORREON        CLEAR     77  25  14 NW12      29.89R
CD. VICTORIA   CLEAR     81  66  61 E3        29.78R

WESTERN MEXICO

CITY           SKY/WX    TMP DP  RH WIND       PRES   REMARKS
AGUASCALIENTES PTCLDY    63   3   9 W8        30.17R
COLIMA         MOCLDY    72  57  60 CALM      30.00R
DEL BAJIO      MOCLDY    68  14  12 W6        30.19R
GUADALAJARA    PTCLDY    70  16  12 W5        30.11R
MAZATLAN       CLEAR     72  63  73 N2        29.95R
P. VALLARTA    PTCLDY    73  68  83 CALM      29.89R
URUAPAN          N/A    N/A N/A N/A MISG        N/A
ZACATECAS      MOCLDY    55   5  13 SW14      30.18S

CENTRAL MEXICO

CITY           SKY/WX    TMP DP  RH WIND       PRES   REMARKS
CUERNAVACA       N/A    N/A N/A N/A MISG        N/A
MEXICO CITY    PTCLDY    70  18  13 W7        30.24R
MORELIA        MOCLDY    66  34  30 W5        30.15R
POZA RICA      CLEAR     77  72  83 CALM      29.77R
QUERETARO      PTCLDY    66  23  19 W7        30.19R
S. LUIS POTOSI MOCLDY    70  -9   4 SW6       30.09R
TAMPICO        MOCLDY    77  73  88 SE12      29.74R
TOLUCA         PTCLDY    61  23  23 SW8       30.32R

SOUTHERN MEXICO

CITY           SKY/WX    TMP DP  RH WIND       PRES   REMARKS
ACAPULCO       CLEAR     77  68  73 W3        29.86R
B. DE HUATULCO CLEAR     79  72  78 W21       29.91R
P. ESCONDIDO     N/A    N/A N/A N/A MISG        N/A
VERACRUZ       PTCLDY    79  73  83 N5        29.74R
ZIHUATANEJO    CLEAR     77  68  73 CALM      29.86R

YUCATAN PENINSULA

CITY           SKY/WX    TMP DP  RH WIND       PRES   REMARKS
CAMPECHE       CLEAR     90  66  45 E12G23    29.74R HX  92
CANCUN         PTCLDY    79  70  73 SE18      29.91S
CHETUMAL       PTCLDY    79  72  78 E12       29.87S
CD. DEL CARMEN   N/A    N/A N/A N/A MISG        N/A
COZUMEL        PTCLDY    79  70  73 SE12      29.90R
MERIDA         CLEAR     86  64  48 E17       29.81R
MINATITLAN       N/A    N/A N/A N/A MISG        N/A
TAPACHULA      CLEAR     77  72  83 CALM      29.88R
TUX. GUTIERREZ CLEAR     82  55  39 E6        29.88R
VILLAHERMOSA   CLEAR     81  73  78 CALM      29.74R

CENTRAL AMERICA

CITY           SKY/WX    TMP DP  RH WIND       PRES   REMARKS

CARIBBEAN

CITY           SKY/WX    TMP DP  RH WIND       PRES   REMARKS
ARUBA          PTCLDY    81  75  83 E15       29.89S
KINGSTON       MOCLDY    81  70  69 NW7       29.94R
NASSAU         PTCLDY    66  59  77 CALM      30.07R
SAN JUAN       PTCLDY    79  72  78 N12       29.99S
SANTO DOMINGO  PTCLDY    75  68  78 NE5       29.97R
ST. CROIX      CLOUDY    79  72  78 N6        29.98S
ST. MAARTEN    MOCLDY    79  73  83 N6        29.97S
ST. THOMAS     MOCLDY    75  70  83 N9        29.97S

$$





USA.gov is the U.S. government's official web portal to all federal, state and local government web resources and services.